TimePST,TemperatureF,Dew PointF,Humidity,Sea Level PressureIn,VisibilityMPH,Wind Direction,Wind SpeedMPH,Gust SpeedMPH,PrecipitationIn,Events,Conditions,WindDirDegrees,DateUTC
12:47 AM,52.0,23.0,32,30.26,10.0,Calm,Calm,-,N/A,,Clear,0,2012-11-12 08:47:00
1:47 AM,48.0,28.0,46,30.25,10.0,Calm,Calm,-,N/A,,Clear,0,2012-11-12 09:47:00
2:47 AM,46.9,28.0,48,30.25,10.0,Calm,Calm,-,N/A,,Clear,0,2012-11-12 10:47:00
3:47 AM,48.9,24.1,38,30.23,10.0,Calm,Calm,-,N/A,,Clear,0,2012-11-12 11:47:00
4:47 AM,46.0,27.0,47,30.23,10.0,Calm,Calm,-,N/A,,Clear,0,2012-11-12 12:47:00
5:47 AM,44.1,28.0,53,30.24,10.0,Calm,Calm,-,N/A,,Clear,0,2012-11-12 13:47:00
6:47 AM,44.1,28.9,55,30.25,10.0,Calm,Calm,-,N/A,,Clear,0,2012-11-12 14:47:00
7:47 AM,51.1,26.1,38,30.26,10.0,Calm,Calm,-,N/A,,Clear,0,2012-11-12 15:47:00
8:47 AM,61.0,19.9,21,30.25,10.0,Calm,Calm,-,N/A,,Clear,0,2012-11-12 16:47:00
9:47 AM,66.0,17.1,15,30.22,10.0,Variable,3.5,-,N/A,,Clear,0,2012-11-12 17:47:00
10:47 AM,66.9,10.0,11,30.19,10.0,Calm,Calm,-,N/A,,Clear,0,2012-11-12 18:47:00
11:47 AM,70.0,10.9,10,30.15,10.0,Calm,Calm,-,N/A,,Clear,0,2012-11-12 19:47:00
12:47 PM,71.1,6.1,8,30.13,10.0,Calm,Calm,-,N/A,,Clear,0,2012-11-12 20:47:00
1:47 PM,73.0,8.1,8,30.12,10.0,Calm,Calm,-,N/A,,Clear,0,2012-11-12 21:47:00
2:47 PM,70.0,27.0,20,30.12,10.0,West,8.1,-,N/A,,Clear,280,2012-11-12 22:47:00
3:47 PM,66.9,14.0,13,30.11,10.0,West,6.9,-,N/A,,Clear,260,2012-11-12 23:47:00
4:47 PM,63.0,16.0,16,30.11,10.0,West,4.6,-,N/A,,Clear,280,2012-11-13 00:47:00
5:47 PM,61.0,28.0,29,30.12,10.0,Calm,Calm,-,N/A,,Clear,0,2012-11-13 01:47:00
6:47 PM,57.9,36.0,44,30.13,10.0,Calm,Calm,-,N/A,,Clear,0,2012-11-13 02:47:00
7:47 PM,57.0,39.0,51,30.14,10.0,Calm,Calm,-,N/A,,Clear,0,2012-11-13 03:47:00
8:47 PM,55.9,41.0,57,30.15,10.0,Calm,Calm,-,N/A,,Clear,0,2012-11-13 04:47:00
9:47 PM,55.0,30.0,38,30.15,10.0,Calm,Calm,-,N/A,,Clear,0,2012-11-13 05:47:00
10:47 PM,55.0,24.1,30,30.14,10.0,Calm,Calm,-,N/A,,Clear,0,2012-11-13 06:47:00
11:47 PM,57.9,12.0,16,30.12,10.0,Calm,Calm,-,N/A,,Clear,0,2012-11-13 07:47:00